• In Hungary
  • List of Countries
  • For 7 days
  • Water Temperature
  • Satellite Maps
  • Weather Map
  • News
  • Weather Widgets
  • user-avatar
    Login

    Hourly Weather Honholoy

    Today, 18 September, Tuesday

    Time Temperature Precipitation Wind Pressure Humidity
    00:00 +10°C° 0 mm 1 mps 686 mmHg 68%
    01:00 +9°C° 0 mm 1 mps 686 mmHg 69%
    02:00 +9°C° 0.1 mm 1 mps 686 mmHg 71%
    03:00 +8°C° 0.1 mm 1 mps 686 mmHg 73%
    04:00 +8°C° 0.1 mm 1 mps 686 mmHg 75%
    05:00 +9°C° 0.1 mm 1 mps 687 mmHg 73%
    06:00 +9°C° 0.1 mm 0 mps 687 mmHg 70%
    07:00 +10°C° 0 mm 0 mps 687 mmHg 66%
    08:00 +13°C° 0 mm 1 mps 688 mmHg 60%
    09:00 +15°C° 0 mm 1 mps 688 mmHg 54%
    10:00 +18°C° 0 mm 1 mps 688 mmHg 48%
    11:00 +18°C° 0 mm 2 mps 688 mmHg 47%
    12:00 +19°C° 0 mm 2 mps 687 mmHg 45%
    13:00 +20°C° 0 mm 2 mps 687 mmHg 41%
    14:00 +20°C° 0 mm 2 mps 687 mmHg 44%
    15:00 +19°C° 0 mm 2 mps 687 mmHg 48%
    16:00 +18°C° 0 mm 3 mps 687 mmHg 52%
    17:00 +15°C° 0.4 mm 2 mps 687 mmHg 64%
    18:00 +13°C° 0.4 mm 2 mps 686 mmHg 76%
    19:00 +11°C° 0 mm 4 mps 686 mmHg 84%
    20:00 +10°C° 0.4 mm 3 mps 686 mmHg 88%
    21:00 +8°C° 0.4 mm 2 mps 686 mmHg 92%
    22:00 +8°C° 0.4 mm 1 mps 686 mmHg 96%
    23:00 +8°C° 0.1 mm 1 mps 686 mmHg 96%

    Tomorrow, 19 September, Wednesday

    Time Temperature Precipitation Wind Pressure Humidity
    00:00 +7°C° 0.1 mm 1 mps 686 mmHg 97%
    01:00 +7°C° 0.1 mm 1 mps 686 mmHg 97%
    02:00 +7°C° 0 mm 1 mps 687 mmHg 97%
    03:00 +7°C° 0 mm 1 mps 687 mmHg 97%
    04:00 +6°C° 0 mm 1 mps 687 mmHg 97%
    05:00 +7°C° 0 mm 1 mps 687 mmHg 95%
    06:00 +6°C° 0 mm 2 mps 687 mmHg 93%
    07:00 +7°C° 0 mm 2 mps 687 mmHg 91%
    08:00 +7°C° 0.1 mm 3 mps 687 mmHg 87%
    09:00 +7°C° 0.1 mm 3 mps 687 mmHg 83%
    10:00 +7°C° 0.1 mm 4 mps 687 mmHg 78%
    11:00 +6°C° 0.4 mm 4 mps 687 mmHg 79%
    12:00 +6°C° 0.4 mm 4 mps 687 mmHg 80%
    13:00 +5°C° 0.4 mm 4 mps 687 mmHg 81%
    14:00 +3°C° 0.9 mm 5 mps 686 mmHg 83%
    15:00 +3°C° 0.9 mm 5 mps 686 mmHg 86%
    16:00 +2°C° 0.9 mm 5 mps 686 mmHg 89%
    17:00 +1°C° 3.4 mm 5 mps 686 mmHg 90%
    18:00 +1°C° 3.4 mm 5 mps 685 mmHg 92%
    19:00 0°C° 3.4 mm 5 mps 685 mmHg 93%
    20:00 0°C° 3.5 mm 5 mps 685 mmHg 94%
    21:00 0°C° 3.5 mm 5 mps 685 mmHg 94%
    22:00 0°C° 3.5 mm 5 mps 685 mmHg 95%
    23:00 0°C° 1.3 mm 5 mps 684 mmHg 95%

    Day after tomorrow, 20 September, Thursday

    Time Temperature Precipitation Wind Pressure Humidity
    00:00 0°C° 1.3 mm 5 mps 684 mmHg 95%
    01:00 0°C° 1.3 mm 5 mps 684 mmHg 95%
    02:00 -1°C° 1.5 mm 6 mps 684 mmHg 95%
    03:00 -2°C° 1.5 mm 6 mps 684 mmHg 95%
    04:00 -2°C° 1.5 mm 6 mps 683 mmHg 95%
    05:00 -2°C° 1.9 mm 6 mps 683 mmHg 95%
    06:00 -2°C° 1.9 mm 6 mps 683 mmHg 95%
    07:00 -2°C° 1.9 mm 6 mps 683 mmHg 95%
    08:00 -2°C° 1.7 mm 7 mps 683 mmHg 96%
    09:00 -2°C° 1.7 mm 7 mps 683 mmHg 96%
    10:00 -2°C° 1.7 mm 7 mps 683 mmHg 96%
    11:00 -2°C° 1.6 mm 7 mps 683 mmHg 97%
    12:00 -1°C° 1.6 mm 7 mps 683 mmHg 97%
    13:00 -1°C° 1.6 mm 7 mps 683 mmHg 97%
    14:00 -1°C° 0.9 mm 7 mps 684 mmHg 97%
    15:00 -1°C° 0.9 mm 7 mps 684 mmHg 97%
    16:00 -1°C° 0.9 mm 7 mps 685 mmHg 98%
    17:00 -1°C° 0.4 mm 7 mps 685 mmHg 97%
    18:00 -1°C° 0.4 mm 6 mps 686 mmHg 97%
    19:00 -1°C° 0.4 mm 6 mps 687 mmHg 97%
    20:00 0°C° 0.1 mm 5 mps 688 mmHg 97%
    21:00 0°C° 0.1 mm 5 mps 688 mmHg 98%
    22:00 0°C° 0.1 mm 4 mps 689 mmHg 98%
    23:00 0°C° 0 mm 4 mps 689 mmHg 98%

    21 September, Friday

    Time Temperature Precipitation Wind Pressure Humidity
    00:00 0°C° 0 mm 4 mps 689 mmHg 98%
    01:00 +1°C° 0 mm 3 mps 689 mmHg 98%
    02:00 0°C° 0 mm 3 mps 690 mmHg 97%
    03:00 0°C° 0 mm 3 mps 690 mmHg 97%
    04:00 0°C° 0 mm 3 mps 690 mmHg 97%
    05:00 0°C° 0.3 mm 3 mps 691 mmHg 97%
    06:00 0°C° 0.3 mm 3 mps 691 mmHg 98%
    07:00 +1°C° 0.3 mm 3 mps 692 mmHg 98%
    08:00 +1°C° 0.4 mm 3 mps 692 mmHg 98%
    09:00 +1°C° 0.4 mm 3 mps 692 mmHg 97%
    10:00 +2°C° 0.4 mm 3 mps 693 mmHg 97%
    11:00 +2°C° 0.5 mm 3 mps 693 mmHg 97%
    12:00 +2°C° 0.5 mm 3 mps 693 mmHg 97%
    13:00 +2°C° 0.5 mm 3 mps 693 mmHg 97%
    14:00 +2°C° 0.4 mm 3 mps 693 mmHg 97%
    15:00 +2°C° 0.4 mm 3 mps 693 mmHg 97%
    16:00 +2°C° 0.4 mm 3 mps 693 mmHg 97%
    17:00 +3°C° 0.1 mm 2 mps 694 mmHg 97%
    18:00 +2°C° 0.1 mm 2 mps 694 mmHg 97%
    19:00 +3°C° 0.1 mm 1 mps 694 mmHg 97%
    20:00 +2°C° 0 mm 1 mps 694 mmHg 97%
    21:00 +2°C° 0 mm 1 mps 695 mmHg 97%
    22:00 +2°C° 0 mm 1 mps 695 mmHg 97%
    23:00 +1°C° 0 mm 1 mps 695 mmHg 97%

    22 September, Saturday

    Time Temperature Precipitation Wind Pressure Humidity
    00:00 +1°C° 0 mm 1 mps 695 mmHg 98%
    01:00 +1°C° 0 mm 1 mps 695 mmHg 98%
    02:00 +1°C° 0 mm 1 mps 695 mmHg 98%
    03:00 +1°C° 0 mm 1 mps 696 mmHg 98%
    04:00 0°C° 0 mm 0 mps 696 mmHg 98%
    05:00 0°C° 0 mm 0 mps 696 mmHg 98%
    06:00 +1°C° 0 mm 0 mps 697 mmHg 98%
    07:00 +1°C° 0 mm 0 mps 697 mmHg 98%
    08:00 +2°C° 0 mm 0 mps 697 mmHg 97%
    09:00 +3°C° 0 mm 1 mps 697 mmHg 97%
    10:00 +4°C° 0 mm 1 mps 697 mmHg 96%
    11:00 +4°C° 0 mm 1 mps 697 mmHg 95%
    12:00 +5°C° 0 mm 1 mps 697 mmHg 95%
    13:00 +5°C° 0 mm 1 mps 697 mmHg 94%
    14:00 +5°C° 0 mm 1 mps 697 mmHg 94%
    15:00 +5°C° 0 mm 1 mps 697 mmHg 95%
    16:00 +5°C° 0 mm 1 mps 697 mmHg 95%
    17:00 +5°C° 0 mm 1 mps 697 mmHg 96%
    18:00 +4°C° 0 mm 1 mps 697 mmHg 97%
    19:00 +3°C° 0 mm 1 mps 697 mmHg 98%
    20:00 +3°C° 0 mm 1 mps 697 mmHg 98%
    21:00 +2°C° 0 mm 1 mps 698 mmHg 98%
    22:00 +2°C° 0 mm 1 mps 698 mmHg 98%
    23:00 +2°C° 0 mm 1 mps 698 mmHg 98%

    23 September, Sunday

    Time Temperature Precipitation Wind Pressure Humidity
    00:00 +2°C° 0 mm 1 mps 698 mmHg 98%
    01:00 +1°C° 0 mm 1 mps 698 mmHg 97%
    02:00 +1°C° 0 mm 1 mps 698 mmHg 97%
    03:00 +1°C° 0 mm 1 mps 698 mmHg 97%
    04:00 +1°C° 0 mm 1 mps 697 mmHg 96%
    05:00 +1°C° 0 mm 1 mps 698 mmHg 96%
    06:00 +1°C° 0 mm 1 mps 698 mmHg 95%
    07:00 +1°C° 0 mm 1 mps 698 mmHg 95%
    08:00 +3°C° 0 mm 1 mps 698 mmHg 94%
    09:00 +4°C° 0 mm 1 mps 698 mmHg 93%
    10:00 +6°C° 0 mm 1 mps 698 mmHg 92%
    11:00 +6°C° 0 mm 1 mps 697 mmHg 92%
    12:00 +7°C° 0 mm 1 mps 697 mmHg 91%
    13:00 +8°C° 0 mm 1 mps 696 mmHg 91%
    14:00 +7°C° 0 mm 1 mps 696 mmHg 91%
    15:00 +7°C° 0 mm 1 mps 696 mmHg 92%
    16:00 +7°C° 0 mm 1 mps 696 mmHg 93%
    17:00 +6°C° 0 mm 1 mps 696 mmHg 95%
    18:00 +5°C° 0 mm 1 mps 696 mmHg 96%
    19:00 +3°C° 0 mm 1 mps 696 mmHg 98%
    20:00 +3°C° 0 mm 1 mps 696 mmHg 98%
    21:00 +2°C° 0 mm 1 mps 696 mmHg 98%
    22:00 +2°C° 0 mm 1 mps 696 mmHg 98%
    23:00 +1°C° 0 mm 1 mps 695 mmHg 97%
    Show more